FW2567 Weather Reports


Display with metric or nautical units.
time (UTC)temp
F
wind
direction
speed
MPH
gust
MPH
rain 1hr
in
rain 24hr
in
rain mn
in
humidity
%
barometer
mb
20260505090030 54 16 1.0 3.0 0.00 0.00 0.00 75 1013.6
20260505084537 57 137 2.0 6.0 0.00 0.00 0.00 74 1013.6
20260505083030 56 203 4.0 8.0 0.00 0.00 0.00 75 1013.6
20260505081529 58 181 3.0 7.0 0.00 0.00 0.00 73 1013.6
20260505080031 59 167 3.0 14.0 0.00 0.00 0.00 73 1013.6
20260505073031 60 242 4.0 12.0 0.00 0.00 0.00 73 1013.4
20260505071532 60 246 4.0 9.0 0.00 0.00 0.00 74 1013.4
20260505070031 60 216 4.0 10.0 0.00 0.00 0.00 74 1013.3
20260505064532 59 204 3.0 8.0 0.00 0.00 0.00 73 1013.2
20260505063028 61 184 3.0 5.0 0.00 0.00 0.00 71 1013.3
20260505061534 61 232 3.0 12.0 0.00 0.00 0.00 71 1013.3
20260505060031 61 215 4.0 9.0 0.00 0.00 0.00 71 1013.3
20260505054530 60 218 4.0 12.0 0.00 0.00 0.00 72 1013.4
20260505053106 59 213 4.0 11.0 0.00 0.00 0.00 71 1013.2
20260505051528 59 180 1.0 5.0 0.00 0.00 0.00 69 1013.2
20260505040042 63 226 4.0 10.0 0.00 0.00 0.00 57 1012.4
20260505034530 64 228 3.0 9.0 0.00 0.00 0.00 54 1012.2
20260505033030 64 228 3.0 10.0 0.00 0.00 0.00 52 1011.9
20260505031531 65 211 4.0 12.0 0.00 0.00 0.00 51 1011.7
20260505030032 67 226 3.0 9.0 0.00 0.00 0.00 49 1011.5
20260505024530 69 201 3.0 11.0 0.00 0.00 0.00 47 1011.4
20260505023146 70 201 4.0 10.0 0.00 0.00 0.00 46 1011.3
20260505021531 72 212 2.0 6.0 0.00 0.00 0.00 45 1011.3
20260505020029 73 232 2.0 8.0 0.00 0.00 0.00 43 1011.2
20260505014533 74 242 4.0 10.0 0.00 0.00 0.00 41 1011.2
20260505013031 75 263 4.0 11.0 0.00 0.00 0.00 39 1011.1
20260505011531 77 261 5.0 12.0 0.00 0.00 0.00 36 1011.0
20260505010106 78 256 5.0 14.0 0.00 0.00 0.00 36 1011.1
20260505004529 79 264 5.0 14.0 0.00 0.00 0.00 35 1011.0
20260505001533 80 262 6.0 14.0 0.00 0.00 0.00 35 1010.8
20260505000029 81 265 7.0 14.0 0.00 0.00 0.00 35 1010.9
20260504234531 81 261 6.0 16.0 0.00 0.00 0.00 35 1010.7
20260504233030 81 269 7.0 16.0 0.00 0.00 0.00 34 1010.8
20260504231607 81 266 9.0 17.0 0.00 0.00 0.00 34 1010.8
20260504230031 82 264 8.0 16.0 0.00 0.00 0.00 34 1010.9
20260504223031 81 261 8.0 18.0 0.00 0.00 0.00 34 1011.1
20260504221531 81 268 8.0 18.0 0.00 0.00 0.00 34 1011.0
20260504220104 81 267 7.0 16.0 0.00 0.00 0.00 34 1011.2
20260504214530 80 266 9.0 19.0 0.00 0.00 0.00 35 1011.2
20260504213116 80 259 8.0 18.0 0.00 0.00 0.00 35 1011.2
20260504211533 80 270 8.0 18.0 0.00 0.00 0.00 35 1011.3
20260504210031 80 255 6.0 16.0 0.00 0.00 0.00 35 1011.3
20260504204531 81 265 6.0 16.0 0.00 0.00 0.00 35 1011.4
20260504203105 81 259 5.0 17.0 0.00 0.00 0.00 34 1011.6
20260504201530 80 318 3.0 11.0 0.00 0.00 0.00 36 1011.7
20260504200032 81 12 3.0 12.0 0.00 0.00 0.00 39 1011.7
20260504194530 81 32 4.0 8.0 0.00 0.00 0.00 40 1011.7
20260504193030 80 43 4.0 10.0 0.00 0.00 0.00 40 1011.7
20260504191608 80 54 5.0 9.0 0.00 0.00 0.00 41 1011.8
20260504184531 79 63 5.0 11.0 0.00 0.00 0.00 42 1011.9
20260504183030 80 60 6.0 11.0 0.00 0.00 0.00 41 1012.0
20260504180031 80 33 2.0 6.0 0.00 0.00 0.00 39 1012.0
20260504173030 80 33 3.0 7.0 0.00 0.00 0.00 38 1012.1
20260504171646 79 6 2.0 5.0 0.00 0.00 0.00 38 1012.1